Location: Boiro
(42.6475°N, 8.8834°W)
Time: 17:21:01
(UTC+01:00)

Transit 2A Rocket - Pass Details

Date: 09 December 2021
Orbit: 584 x 918 km, 66.7° (Epoch: 19 January)

Event Time Altitude Azimuth Distance (km) Brightness Sun altitude
Rises 07:09:30 0° 187° (S) 3,286 8.4 -18.5°
Reaches altitude 10° 07:11:57 10° 180° (S) 2,409 7.7 -18.1°
Maximum altitude 07:17:11 42° 112° (ESE) 1,218 6.6 -17.1°
Drops below altitude 10° 07:22:48 10° 43° (NE) 2,583 8.1 -16.1°
Sets 07:25:29 0° 37° (NE) 3,548 8.7 -15.7°
